Location: Unspecified
(0.0000°N, 0.0000°E)
Time: 16:42:38
(UTC+02:00)

Daily predictions for brighter satellites

Satellite Brightness Start Highest point End
(mag) Time Altitude Azimuth Time Altitude Azimuth Time Altitude Azimuth
COSMOS 2406 3.5 20:24:28 10° N 20:29:58 49° ENE 20:35:31 10° SSE
Cosmos 1300 3.9 20:26:30 10° NNW 20:30:10 46° W 20:33:50 10° SSW
ALOS 3.5 20:27:10 10° SE 20:30:50 23° ENE 20:34:30 10° NNE
SL-24 DEB 4.5 20:31:33 10° S 20:36:21 81° W 20:41:07 10° N
SL-27 R/B 4.4 20:41:24 10° NE 20:43:14 14° ENE 20:44:32 12° ESE
Cosmos 1400 Rocket 2.9 20:39:13 10° S 20:43:18 59° E 20:47:19 10° NNE
FENGYUN 3A 4.4 20:38:34 10° SE 20:43:25 34° ENE 20:48:13 10° NNE
Cosmos 1937 Rocket 3.7 20:41:41 10° S 20:46:37 46° ESE 20:51:30 10° NNE
ISS -0.4 20:45:21 10° W 20:46:56 13° NW 20:48:33 10° NNW
YAOGAN 1 4.5 20:44:24 10° SSW 20:48:16 32° WSW 20:52:06 10° NW
Cosmos 2150 Rocket 4.2 20:47:57 10° S 20:53:16 54° ESE 20:58:31 10° NNE
Cosmos 2298 Rocket 4.0 20:48:14 10° S 20:53:30 64° ESE 20:58:43 10° NNE
SWIFT 2.3 20:50:25 10° WSW 20:54:35 67° SSE 20:58:15 13° ENE
Cosmos 1455 2.3 20:51:19 10° N 20:54:55 48° E 20:58:34 10° SSE
Cosmos 1633 Rocket 3.0 20:50:52 10° S 20:55:14 79° E 20:59:37 10° N
Molniya-1 3.9 20:51:39 10° SSW 20:56:16 84° ESE 20:59:12 10° NNE
Cosmos 2344 4.4 20:49:25 10° S 20:57:12 29° ESE 21:03:48 10° ENE
Spelda 2.4 20:57:46 10° WNW 21:00:19 61° N 21:03:51 16° E
COSMOS 2455 2.9 20:54:36 10° S 21:00:30 58° ESE 21:06:22 10° NNE
Milstar 3 Cent rocket 3.2 20:59:52 10° W 21:04:15 36° SSW 21:09:09 14° SE
ARIANE 5 DEB (SYLDA) 4.1 20:58:44 10° W 21:04:17 81° S 21:24:07 15° E
Cosmos 1666 Rocket 4.3 21:00:18 10° SSW 21:04:39 56° W 21:08:55 10° N
H-2A R/B 3.7 21:04:00 21° ESE 21:05:37 29° E 21:09:03 10° NNE
Sich 1 3.8 21:01:29 10° SSW 21:05:40 53° W 21:09:51 10° N
Cosmos 1707 Rocket 4.1 21:06:47 10° NNE 21:10:44 34° E 21:12:24 25° SE
ARIANE 5 R/B 0.7 21:08:24 10° W 21:11:24 54° S 21:11:39 48° SSE
Cosmos 1943 Rocket 4.3 21:16:56 10° ENE 21:16:56 10° ENE 21:07:24 - SSE
Cosmos 1933 Rocket 3.7 21:09:33 10° SSE 21:13:44 47° E 21:17:53 10° NNE
Resurs 01 Rocket 3.2 21:14:31 18° ENE 21:14:31 18° ENE 21:16:59 10° NNE
Cosmos 1315 Rocket 2.6 21:10:18 10° S 21:14:14 73° E 21:18:11 10° N
HJ-1C 3.8 21:17:15 39° ESE 21:17:47 43° E 21:21:02 10° N
FengYun 1-2 T 4.2 21:19:25 16° SSE 21:23:46 62° ENE 21:29:12 10° N
Ariane 44P Rocket 3.4 21:13:46 10° W 21:25:43 56° N 21:27:20 29° ENE
DNEPR-1 R/B 4.4 21:20:28 10° SSW 21:27:31 70° ESE 21:33:14 10° NNE
Cosmos 2369 Rocket 2.0 21:23:54 10° S 21:29:28 68° ESE 21:35:02 10° NNE
Cosmos 1538 Rocket 4.3 21:25:13 10° NNW 21:30:26 69° WSW 21:35:00 14° S
CENTAUR R/B 2.0 21:25:03 10° SSW 21:30:34 78° ESE 21:36:20 10° NNE
Cosmos 1892 4.3 21:33:30 23° NE 21:33:30 23° NE 21:35:10 10° NNE
Delta 198 3.1 21:32:47 10° WNW 21:37:23 86° NNE 21:37:50 70° ESE
Cosmos 923 Rocket 4.1 21:34:04 10° N 21:39:11 51° ENE 21:39:45 49° E
ARIANE 5 DEB (SYLDA) 2.7 21:37:03 10° W 21:41:14 62° W 21:41:14 62° W
Ariane H10+ 2.6 21:31:32 10° W 21:41:43 50° NNW 21:43:17 34° NE
SJ-6B 3.3 21:41:12 33° SSW 21:42:35 53° WSW 21:46:14 10° NNW
ATLAS 2AS CENTAUR RB 4.2 15:56:23 10° W 21:45:59 53° SSW 21:50:42 34° SE
Tsikada Rocket 4.1 21:41:11 10° S 21:47:30 76° W 21:53:44 10° N
ASTRO E2 3.5 21:46:14 10° WNW 21:49:49 45° SW 21:49:49 45° SW
Cosmos 1891 Rocket 4.4 21:57:23 10° N 22:03:36 85° E 22:04:50 61° SSE
CZ-3B DEB 3.7 21:55:38 10° NW 22:05:38 64° WSW 22:10:25 32° S
GPS 2-14 Rocket1 4.4 22:04:39 10° W 22:06:58 29° WSW 22:06:58 29° WSW
Meteor 2-3 Rocket 4.1 22:03:08 10° SSW 22:08:51 62° W 22:14:30 10° N
Cosmos 1680 Rocket 3.8 22:03:57 10° N 22:08:14 59° N 22:08:14 59° N
Ariane 5 R/B 4.4 22:04:08 10° W 22:14:45 49° N 22:15:26 46° NNE
ATLAS 2A CENTAUR R/B 4.1 22:13:42 10° WNW 22:20:59 78° SSW 22:27:42 47° SE
Cosmos 2034 Rocket 4.0 22:16:00 10° N 22:22:03 74° W 22:22:03 74° W
Cosmos 2082 Rocket 3.5 22:35:38 10° NNW 22:38:54 36° NW 22:38:54 36° NW
Resurs 01 Rocket 4.5 22:52:06 14° WNW 22:52:06 14° WNW 22:53:14 10° WNW
Cosmos 1833 Rocket 4.4 22:47:26 10° NNW 22:50:05 27° NW 22:50:05 27° NW
Cosmos 1943 Rocket 4.2 22:58:06 23° NW 22:58:06 23° NW 23:00:57 10° NNW
